Location: Street
(51.1247°N, 2.7429°W)
Time: 19:15:58
(UTC+01:00)

DUCHIFAT 1 - Visible Passes

Search period start: 28 March 2023 00:00
Search period end: 07 April 2023 00:00
Orbit: 570 x 586 km, 98.0° (Epoch: 27 March)

Date Brightness Start Highest point End Pass type
(mag) Time Alt. Az. Time Alt. Az. Time Alt. Az.
28 Mar ? 03:44:38 10° NE 03:48:04 25° E 03:48:47 24° ESE visible
28 Mar ? 05:19:37 10° N 05:23:26 37° WNW 05:25:04 26° WSW visible
29 Mar ? 03:48:47 10° NE 03:52:19 27° E 03:53:11 25° ESE visible
29 Mar ? 05:23:53 10° N 05:27:37 34° WNW 05:29:28 23° WSW visible
30 Mar ? 03:52:54 10° NNE 03:56:32 30° E 03:57:33 26° ESE visible
30 Mar ? 05:28:08 10° N 05:31:47 32° WNW 05:33:52 20° WSW visible
31 Mar ? 03:57:01 10° NNE 04:00:44 32° E 04:01:56 27° SE visible
31 Mar ? 05:32:21 10° N 05:35:56 29° WNW 05:38:13 17° WSW visible
01 Apr ? 04:01:07 10° NNE 04:04:54 35° E 04:06:16 28° SE visible
01 Apr ? 05:36:35 10° N 05:40:02 27° WNW 05:42:33 15° WSW visible
02 Apr ? 04:05:12 10° NNE 04:09:04 39° E 04:10:35 28° SE visible
02 Apr ? 05:40:46 10° N 05:44:09 25° WNW 05:46:52 13° WSW visible
03 Apr ? 04:09:17 10° NNE 04:13:11 42° E 04:14:53 27° SSE visible
03 Apr ? 05:44:57 10° N 05:48:13 23° WNW 05:51:10 11° WSW visible
04 Apr ? 04:13:20 10° NNE 04:17:17 46° E 04:19:09 27° SSE visible
04 Apr ? 05:49:07 10° N 05:52:16 22° WNW 05:55:24 10° WSW visible
05 Apr ? 04:17:22 10° NNE 04:21:22 51° E 04:23:24 26° SSE visible
05 Apr ? 05:53:17 10° NNW 05:56:18 20° WNW 05:59:19 10° WSW visible
06 Apr ? 04:21:24 10° NNE 04:25:26 56° E 04:27:38 25° S visible
06 Apr ? 05:57:25 10° NNW 06:00:18 19° WNW 06:03:11 10° WSW visible
